Siemreap, Cambodia

12:54 PM +07 on July 26, 2017 (GMT +0700)
Siem Reap

Weather History for VDSR - April, 2013

Change the Weather History Date:

Saturday, April 13, 2013

  Actual Average Record
Temperature  
Mean Temperature 88 °F -  
Max Temperature 95 °F - - ()
Min Temperature 80 °F - - ()
Cooling Degree Days 22    
Growing Degree Days 38 (Base 50)    
Moisture  
Dew Point 70 °F    
Average Humidity 57    
Maximum Humidity 84    
Minimum Humidity 36    
Precipitation  
Precipitation 0.00 in - - ()
Sea Level Pressure  
Sea Level Pressure 29.80 in    
Wind  
Wind Speed 4 mph ()    
Max Wind Speed 15 mph    
Max Gust Speed -    
Visibility 6.0 miles    
Events      
T = Trace of Precipitation, MM = Missing Value Source: Averaged Metar Reports

Daily Weather History Graph

Daily Weather History Graph

Search for Another Location

Airport or City:

Trip Planner

Search our weather history database for the weather conditions in past years. The results will help you decide how hot, cold, wet, or windy it might be!

Date:

Astronomy

Apr. 13, 2013 Rise Set
Actual Time 5:53 AM +07 6:17 PM +07
Civil Twilight 5:31 AM +07 6:38 PM +07
Nautical Twilight 5:06 AM +07 7:04 PM +07
Astronomical Twilight 4:41 AM +07 7:29 PM +07
Moon 7:45 AM +07 (4/13) 8:46 PM +07 (4/13)
Length of Visible Light 13h 07m
Length of Day
12h 24m
Waxing Crescent, 8% of the Moon is Illuminated
Apr 13
Waxing Crescent
Apr 18
First Quarter
Apr 26
Full
May 2
Last Quarter
May 10
New

Hourly Weather History & Observations

Time (+07) Temp. Heat Index Dew Point Humidity Pressure Visibility Wind Dir Wind Speed Gust Speed Precip Events Conditions
12:00 AM 80.6 °F 86.2 °F 75.2 °F 84% 29.83 in 5.6 mi East 3.5 mph - N/A   Mostly Cloudy
12:30 AM 80.6 °F 86.2 °F 75.2 °F 84% 29.83 in 5.6 mi North 3.5 mph - N/A   Mostly Cloudy
1:00 AM 80.6 °F 86.2 °F 75.2 °F 84% 29.83 in 5.6 mi NE 3.5 mph - N/A   Mostly Cloudy
7:00 AM 82.4 °F 87.2 °F 71.6 °F 70% 29.83 in 5.6 mi Calm Calm - N/A   Mostly Cloudy
7:30 AM 82.4 °F 87.2 °F 71.6 °F 70% 29.83 in 6.2 mi Calm Calm - N/A   Mostly Cloudy
8:00 AM 84.2 °F 89.6 °F 71.6 °F 66% 29.86 in 6.2 mi ENE 3.5 mph - N/A   Mostly Cloudy
8:30 AM 84.2 °F 89.6 °F 71.6 °F 66% 29.86 in 6.2 mi Variable 3.5 mph - N/A   Scattered Clouds
9:00 AM 86.0 °F 90.4 °F 69.8 °F 58% 29.86 in 6.2 mi NE 2.3 mph - N/A   Scattered Clouds
9:30 AM 89.6 °F 93.4 °F 68.0 °F 49% 29.86 in 6.2 mi SSE 5.8 mph - N/A   Scattered Clouds
10:00 AM 89.6 °F 93.4 °F 68.0 °F 49% 29.86 in 6.2 mi West 3.5 mph - N/A   Scattered Clouds
10:30 AM 91.4 °F 95.4 °F 68.0 °F 46% 29.86 in 6.2 mi ESE 9.2 mph - N/A   Scattered Clouds
11:30 AM 95.0 °F 98.5 °F 66.2 °F 39% 29.83 in 6.2 mi SSE 15.0 mph - N/A   Scattered Clouds
12:00 PM 95.0 °F 97.0 °F 64.4 °F 36% 29.83 in 6.2 mi SSE 11.5 mph - N/A   Scattered Clouds
12:30 PM 95.0 °F 98.5 °F 66.2 °F 39% 29.80 in 6.2 mi ESE 9.2 mph - N/A   Scattered Clouds
1:00 PM 95.0 °F 98.5 °F 66.2 °F 39% 29.80 in 6.2 mi East 13.8 mph - N/A   Scattered Clouds
1:30 PM 95.0 °F 98.5 °F 66.2 °F 39% 29.77 in 6.2 mi SSE 11.5 mph - N/A   Scattered Clouds
2:00 PM 95.0 °F 98.5 °F 66.2 °F 39% 29.77 in 6.2 mi SE 13.8 mph - N/A   Scattered Clouds
2:30 PM 95.0 °F 98.5 °F 66.2 °F 39% 29.74 in 6.2 mi SE 5.8 mph - N/A   Scattered Clouds
3:00 PM 95.0 °F 98.5 °F 66.2 °F 39% 29.74 in 6.2 mi North 5.8 mph - N/A   Scattered Clouds
3:30 PM 95.0 °F 98.5 °F 66.2 °F 39% 29.74 in 6.2 mi ENE 10.4 mph - N/A   Scattered Clouds
4:00 PM 95.0 °F 97.0 °F 64.4 °F 36% 29.74 in 6.2 mi SSE 11.5 mph - N/A   Mostly Cloudy
4:30 PM 95.0 °F 98.5 °F 66.2 °F 39% 29.74 in 6.2 mi SW 5.8 mph - N/A   Mostly Cloudy
5:00 PM 93.2 °F 97.7 °F 68.0 °F 44% 29.74 in 6.2 mi Variable 2.3 mph - N/A   Mostly Cloudy
6:00 PM 93.2 °F 100.5 °F 71.6 °F 49% 29.74 in 6.2 mi Calm Calm - N/A   Scattered Clouds
6:30 PM 89.6 °F 96.2 °F 71.6 °F 55% 29.74 in 6.2 mi Calm Calm - N/A   Scattered Clouds
7:00 PM 87.8 °F 97.6 °F 75.2 °F 66% 29.77 in 6.2 mi Calm Calm - N/A   Scattered Clouds
7:30 PM 86.0 °F 93.4 °F 73.4 °F 66% 29.77 in 5.6 mi Calm Calm - N/A   Scattered Clouds
8:00 PM 86.0 °F 93.4 °F 73.4 °F 66% 29.77 in 5.6 mi Calm Calm - N/A   Scattered Clouds
8:30 PM 86.0 °F 93.4 °F 73.4 °F 66% 29.77 in 5.6 mi Calm Calm - N/A   Scattered Clouds
9:00 PM 86.0 °F 93.4 °F 73.4 °F 66% 29.80 in 5.6 mi Calm Calm - N/A   Scattered Clouds
9:30 PM 86.0 °F 93.4 °F 73.4 °F 66% 29.83 in 5.6 mi Calm Calm - N/A   Scattered Clouds
10:00 PM 84.2 °F 92.3 °F 75.2 °F 74% 29.83 in 5.6 mi Calm Calm - N/A   Scattered Clouds
10:30 PM 84.2 °F 92.3 °F 75.2 °F 74% 29.86 in 5.6 mi Calm Calm - N/A   Scattered Clouds
11:00 PM 86.0 °F 93.4 °F 73.4 °F 66% 29.86 in 5.6 mi Calm Calm - N/A   Scattered Clouds
11:30 PM 84.2 °F 92.3 °F 75.2 °F 74% 29.83 in 5.6 mi Calm Calm - N/A   Scattered Clouds